Location: Wanzleben
(52.0609°N, 11.4408°E)
Time: 19:20:55
(UTC+00:00)

Cosmos 1898 Rocket - Pass Details

Date: 18 September 2020
Orbit: 753 x 784 km, 74.0° (Epoch: 22 October)

Event Time Altitude Azimuth Distance (km) Brightness Sun altitude
Rises 18:25:26 0° 206° (SSW) 3,195 6.8 -10.6°
Reaches altitude 10° 18:27:47 10° 208° (SSW) 2,274 6.1 -10.9°
Maximum altitude 18:32:57 81° 295° (WNW) 771 3.6 -11.7°
Drops below altitude 10° 18:38:10 10° 24° (NNE) 2,297 5.9 -12.4°
Sets 18:40:33 0° 25° (NNE) 3,229 6.7 -12.8°
